Regional Weather Roundup
Issued by NWS

Home | Current Version | Previous Version | Graphics & Text | Print | Product List | Glossary Off
Versions: 1 2 3 4 5 6 7 8 9 10 11 12 13 14 15 16 17 18 19 20 21 22 23 24 25 26 27 28 29 30 31 32 33 34 35 36 37 38 39 40 41 42 43 44 45 46 47 48 49 50

000
ASUS43 KLOT 301508
RWRIL

ILLINOIS REGIONAL WEATHER ROUNDUP
NATIONAL WEATHER SERVICE CHICAGO/ROMEOVILLE IL
1000 AM CDT SAT JUL 30 2016

NOTE: "FAIR" INDICATES FEW OR NO CLOUDS BELOW 12,000 FEET WITH NO
SIGNIFICANT WEATHER AND/OR OBSTRUCTIONS TO VISIBILITY.

* THESE STATIONS ARE NOT UNDER NWS QUALITY CONTROL. THEY ALSO MAY NOT
  REPORT WEATHER SUCH AS PRECIPITATION OR FOG.

ILZ001-002-007-009-015-016-024-301600-
NORTHWEST ILLINOIS

CITY           SKY/WX    TMP DP  RH WIND       PRES   REMARKS
MOLINE         CLOUDY    74  67  78 VRB6      29.98F
STERLING*      CLOUDY    71  68  90 NE6       29.99S
SAVANNA*       CLOUDY    73  66  79 NE7       29.99S
$$

ILZ003-004-008-010-011-017-018-301600-
NORTH CENTRAL ILLINOIS

CITY           SKY/WX    TMP DP  RH WIND       PRES   REMARKS
ROCKFORD       PTSUNNY   75  65  70 E10       30.00F
FREEPORT*      PTSUNNY   71  65  82 E7        30.02F
ROCHELLE*      CLOUDY    72  67  85 NE7       29.99F
DE KALB*       CLOUDY    72  67  84 NE8       29.99F
$$

ILZ005-006-012>014-019>023-301600-
NORTHEAST ILLINOIS

CITY           SKY/WX    TMP DP  RH WIND       PRES   REMARKS
CHICAGO-OHARE  CLOUDY    72  65  78 NE7       29.98R
CHICAGO-MIDWAY PTSUNNY   73  65  75 E9        29.98R
AURORA         MOSUNNY   76  67  73 NE7       29.97F
LANSING*       CLOUDY    73  66  79 CALM      29.97S
JOLIET*        MOSUNNY   76  69  79 NE10      29.97R
WAUKEGAN       PTSUNNY   73  66  78 NE12      29.99S
DUPAGE AIRPORT CLOUDY    74  65  73 NE9       29.97S
KANKAKEE*      CLOUDY    71  69  94 CALM      29.97S
WHEELING       CLOUDY    71  65  81 NE8       30.00R
MORRIS*        MOSUNNY   76  68  77 CALM      29.95F
ROMEOVILLE*    CLOUDY    73  65  75 E7        29.97S
NORTHERLY ISL    N/A     70  65  84 NE9         N/A
$$

LMZ740>746-301600-
SOUTHERN LAKE MICHIGAN

STATION/POSITION SKY/WX   TEMP    WIND        PRES    VSBY  WAVE
                          AIR SEA DIR/SP/G                  HT/PER
                          (F)     (DEG/KT/KT) (MB)    (MI)  (FT/S)
SOUTHERN BUOY              68 73   70/  8/ 10 1015.5R         2/ 4
WILMETTE HARBOR            70 71   90/  8/ 12   N/A           4/ 6
HARRISON CRIB              70      60/ 10/ 11   N/A
BURNHAM HARBOR             69      60/  7/ 10   N/A
CALUMET HARBOR             70      40/  6/  8 1014.4R
BURNS HARBOR               68      50/ 10/ 12 1015.2R
MICHIGAN CITY              65      30/ 15/ 16   N/A
MICHIGAN CITY 6N           68 72   80/ 10/ 14   N/A           3/ 5
ST. JOSEPH                 67 70   90/  8/ 10 1015.2S         2
$$

ILZ025>027-034>036-040-047-049-050-058-095>099-301600-
WEST-CENTRAL ILLINOIS

CITY           SKY/WX    TMP DP  RH WIND       PRES   REMARKS
QUINCY         CLOUDY    70  67  90 NW8       30.00S
GALESBURG*     CLOUDY    72  67  85 CALM      29.99S
MACOMB*        MOSUNNY   74  68  81 N3        30.00F
JACKSONVILLE*  CLOUDY    71  67  87 NW3       29.99S
PITTSFIELD*    PTSUNNY   72  67  83 NW5       30.01S
$$

ILZ028>032-037-038-041>044-048-051>054-059>061-301600-
CENTRAL ILLINOIS

CITY           SKY/WX    TMP DP  RH WIND       PRES   REMARKS
PONTIAC        CLOUDY    75  72  91 W3        29.98R FOG
BLOOMINGTON    CLOUDY    73  67  81 N3        29.99S
DECATUR        MOSUNNY   76  66  71 NW8       29.98S
PEORIA         CLOUDY    75  68  78 NW6       29.97F
LACON*         CLOUDY    72  68  87 CALM      29.97S FOG
LINCOLN*       CLOUDY    72  69  90 CALM      29.98S
SPRINGFIELD    CLOUDY    72  67  84 W6        29.99F
TAYLORVILLE    PTSUNNY   75  68  80 MISG      29.99S
$$

ILZ033-039-045-046-055>057-062-063-301600-
EAST-CENTRAL ILLINOIS

CITY           SKY/WX    TMP DP  RH WIND       PRES   REMARKS
CHAMPAIGN      PTSUNNY   73  68  84 W7        29.98S
MATTOON        SUNNY     76  67  73 W9        29.97F
PARIS*         MOSUNNY   77  69  77 W5        29.98F
$$

ILZ079-100>102-301600-
SOUTHWEST ILLINOIS

CITY           SKY/WX    TMP DP  RH WIND       PRES   REMARKS
ALTON          MOSUNNY   75  66  73 VRB6      30.00S
BELLEVILLE     SUNNY     81  72  75 CALM      29.98S HX  85
CAHOKIA*       PTSUNNY   81  67  62 CALM      29.99S HX  83
SPARTA*        PTSUNNY   77  72  84 W3        30.01S
$$

ILZ064>066-069>071-074>076-080>082-084>086-088>090-092>094-301600-
SOUTH-CENTRAL ILLINOIS

CITY           SKY/WX    TMP DP  RH WIND       PRES   REMARKS
CARBONDALE     MOSUNNY   79  70  74 N5        30.00R HX  82
CAIRO*         CLOUDY    72  71  99 W3        30.00S FOG
EFFINGHAM*     SUNNY     78  69  75 W5        30.00S
MARION         PTSUNNY   77  72  83 NW5       30.01R
MT. VERNON     MOSUNNY   79  66  65 CALM      30.00S HX  81
CENTRALIA*     MOSUNNY   79  72  79 N5        29.99S HX  82
SALEM*         SUNNY     79  67  66 NW3       29.99S HX  81
METROPOLIS*    CLOUDY    77  72  85 W5        30.00S
$$

ILZ067-068-072-073-078-083-087-091-301600-
SOUTHEAST ILLINOIS

CITY           SKY/WX    TMP DP  RH WIND       PRES   REMARKS
LAWRENCEVILLE  PTSUNNY   78  70  76 CALM        N/A  HX  80
FLORA*         SUNNY     80  69  70 N5        29.99S HX  83
FAIRFIELD*     MOSUNNY   78  71  78 CALM      29.98S HX  80
HARRISBURG*    CLOUDY    75  72  90 NW3       30.00S
ROBINSON*      MOSUNNY   76  69  78 CALM      29.98F
CARMI*         MOSUNNY   78  73  82 NW5       29.98S HX  81
$$

ABBREVIATIONS USED IN REMARKS
   TC - TEMPERATURE IN CELSIUS
  WCI - WIND CHILL INDEX
   HX - HEAT INDEX
  VSB - VISIBILITY
$$





USA.gov is the U.S. government's official web portal to all federal, state and local government web resources and services.